This is the latest recevied weather packets stored in our database for station/object OK1FET-5. If no packets are shown the sender has not sent any weather packets the latest 10 day(s).
| Time | Temp. | Humidity | Pressure | Rain* | Wind** | Luminosity | Snow |
|---|---|---|---|---|---|---|---|
| 1778023768 | 11.67° C | 87% | 1006.6 hPa | - | - | - | - |
| 1778023474 | 11.67° C | 86% | 1006.7 hPa | - | - | - | - |
| 1778023180 | 11.67° C | 85% | 1006.7 hPa | - | - | - | - |
| 1778022886 | 11.67° C | 83% | 1006.7 hPa | - | - | - | - |
| 1778022886 | 11.67° C | 83% | 1006.7 hPa | - | - | - | - |
| 1778022591 | 11.67° C | 86% | 1006.6 hPa | - | - | - | - |
| 1778022297 | 11.67° C | 87% | 1006.4 hPa | - | - | - | - |
| 1778022003 | 11.67° C | 87% | 1006.5 hPa | - | - | - | - |
| 1778021709 | 11.67° C | 88% | 1006.4 hPa | - | - | - | - |
| 1778021414 | 11.67° C | 88% | 1006.2 hPa | - | - | - | - |
| 1778021414 | 11.67° C | 88% | 1006.2 hPa | - | - | - | - |
| 1778021120 | 11.67° C | 87% | 1006.2 hPa | - | - | - | - |
| 1778021120 | 11.67° C | 87% | 1006.2 hPa | - | - | - | - |
| 1778020826 | 11.67° C | 88% | 1006.5 hPa | - | - | - | - |
| 1778020826 | 11.67° C | 88% | 1006.5 hPa | - | - | - | - |
| 1778020532 | 11.67° C | 88% | 1006.7 hPa | - | - | - | - |
| 1778020531 | 11.67° C | 88% | 1006.7 hPa | - | - | - | - |
| 1778020237 | 11.67° C | 88% | 1006.8 hPa | - | - | - | - |
| 1778020237 | 11.67° C | 88% | 1006.8 hPa | - | - | - | - |
| 1778019943 | 11.67° C | 89% | 1006.9 hPa | - | - | - | - |
| 1778019649 | 11.67° C | 89% | 1007.1 hPa | - | - | - | - |
| 1778019649 | 11.67° C | 89% | 1007.1 hPa | - | - | - | - |
| 1778019355 | 11.67° C | 90% | 1007.2 hPa | - | - | - | - |
| 1778019060 | 11.67° C | 91% | 1007.2 hPa | - | - | - | - |
| 1778018766 | 11.67° C | 93% | 1007.2 hPa | - | - | - | - |
* Rain since midnight (hover to see other rain measurements)
** Current wind speed in m/s (hover to see current wind gust speed)